Find Feng Yun 3B

NORAD ID: 37214 Int'l Des: 2010-059 Owner: NSMC Country: CN operational
LEOCIRCULARRETROGRADESSO

現在のビュー

3D地球を読み込み中...

Feng Yun 3Bについて

説明を読み込み中...

次回通過

Passes for default location (London). Set your location on the main map for personalized predictions.

高度履歴

Loading altitude history...

軌道要素

1 37214U 10059A 26150.20356580 .00000196 00000-0 12499-3 0 9999
2 37214 98.9633 196.1405 0021194 236.3061 204.0958 14.14837166804888
Epoch: May 30, 2026 • Age: 6 hours

現在のステータス

高度 858.0 km
速度 7.43 km/s
衛星直下点 -80.71°S, 107.99°W
打ち上げ日 Nov 4, 2010
運用期間 15.5 years
タイプ other

技術仕様

分類 Payload
質量 2200.00 kg
乾燥質量 2130.00 kg
総質量 2200.00 kg
長さ 4.40 m
直径 2.00 m
スパン 10.00 m
形状 Box + 2 Pan
製造者 SISE
バスタイプ FY-3
フェーズステータス In Orbit
所有者/国 NSMC/CN

Most Searched